Regional Weather Roundup
Issued by NWS

Home | Current Version | Previous Version | Graphics & Text | Print | Product List | Glossary On
Versions: 1 2 3 4 5 6 7 8 9 10 11 12 13 14 15 16 17 18 19 20 21 22 23 24 25 26 27 28 29 30 31 32 33 34 35 36 37 38 39 40 41 42 43 44 45 46 47 48 49 50
000
ASUS43 KDTX 232110
RWRMI
MICHIGAN HOURLY REGIONAL WEATHER ROUNDUP
NATIONAL WEATHER SERVICE DETROIT/PONTIAC MI
500 PM EDT THU OCT 23 2014

NOTE: "FAIR" INDICATES FEW OR NO CLOUDS BELOW 12,000 FEET WITH NO
SIGNIFICANT WEATHER AND/OR OBSTRUCTION TO VISIBILITY.

MIZ047>049-052>055-059>063-066>070-074>076-081>083-232200-
SOUTHEAST LOWER MICHIGAN

CITY           SKY/WX    TMP DP  RH WIND       PRES   REMARKS
ADRIAN         SUNNY     57  36  45 W9        30.14F
ALMA           SUNNY     54  38  54 CALM      30.13F
ANN ARBOR      SUNNY     58  37  45 W7        30.13F
BAD AXE        SUNNY     49  41  73 W5        30.13F
DETROIT CITY   MOSUNNY   61  38  42 CALM      30.13F
DETROIT        MOSUNNY   59  39  47 CALM      30.14S
FLINT          MOSUNNY   58  39  49 SW5       30.13F
GROSSE ILE     MOSUNNY   54  46  76 S6        30.13S
HILLSDALE      SUNNY     58  37  46 W5        30.13F
HOWELL         SUNNY     55  38  51 NW3       30.13F

CITY           SKY/WX    TMP DP  RH WIND       PRES   REMARKS
JACKSON        SUNNY     57  36  45 W6        30.13F
LAMBERTVILLE   SUNNY     59  37  44 W5        30.15S
LANSING        SUNNY     56  33  42 SW8       30.14F
LAPEER         NOT AVBL
MASON          SUNNY     56  39  53 W7        30.14S
MONROE         SUNNY     59  39  47 W5        30.13S
MT. CLEMENS    MOSUNNY   56  43  61 S5        30.10F
PONTIAC        MOSUNNY   56  36  47 W3        30.12F
PORT HOPE        N/A     50  39  66 SW3       30.12F
PORT HURON     SUNNY     54  45  71 NE7       30.13F
TRI CITIES     SUNNY     53  37  54 SW8       30.15F
YPSILANTI      SUNNY     62  37  39 VRB7      30.14F
$$
MIZ043>046-050>051-056>058-064>065-071>073-077>080-232200-
SOUTHWEST LOWER MICHIGAN

CITY           SKY/WX    TMP DP  RH WIND       PRES   REMARKS
BATTLE CREEK   SUNNY     58  37  45 CALM      30.14F
BENTON HARBOR  MOSUNNY   56  39  53 S5        30.11F
BIG RAPIDS     MOSUNNY   56  43  60 SE6       30.11R
COLDWATER      SUNNY     57  40  52 CALM      30.14S
HOLLAND        MOSUNNY   57  41  55 SE6       30.11F
GRAND RAPIDS   PTSUNNY   58  40  51 SE6       30.11F
KALAMAZOO      SUNNY     58  37  45 SE6       30.12F
MARSHALL       SUNNY     57  36  45 CALM      30.13F
MUSKEGON       PTSUNNY   53  43  68 S9        30.12F
$$
MIZ016>042-232200-
NORTHERN LOWER MICHIGAN

CITY           SKY/WX    TMP DP  RH WIND       PRES   REMARKS
ALPENA         SUNNY     49  40  71 SE8       30.11F
BEAVER ISLAND  MOSUNNY   53  44  73 S5        30.09F
BELLAIRE       MOSUNNY   55  36  48 CALM      30.09F
CADILLAC       SUNNY     53  41  64 S5        30.09F
CHARLEVOIX     MOSUNNY   54  44  70 CALM      30.12F
FRANKFORT      MOCLDY    53  44  72 SW6       30.09F
GAYLORD        MOSUNNY   54  31  41 S6        30.09F
GRAYLING       MOSUNNY   53  37  52 CALM      30.11F
HARBOR SPRINGS MOSUNNY   54  38  54 CALM      30.10F
HOUGHTON LAKE  SUNNY     51  35  54 CALM      30.12F
OSCODA         SUNNY     49  37  64 SW6       30.12F
PELLSTON       PTSUNNY   55  35  47 CALM      30.10
TRAVERSE CITY  PTSUNNY   58  39  49 VRB3      30.08F
$$
MIZ007>008-015-232200-
EASTERN UPPER MICHIGAN

CITY           SKY/WX    TMP DP  RH WIND       PRES   REMARKS
KINROSS        MOSUNNY   52  36  54 S7        30.10S
MACKINAC ISLAN PTSUNNY   49  41  73 CALM      30.10F
NEWBERRY       PTSUNNY   48  41  79 SW8G22    30.08F
S. S. MARIE    MOSUNNY   52  36  54 SE7       30.08F
$$
MIZ004>006-011>014-085-232200-
CENTRAL UPPER MICHIGAN

CITY           SKY/WX    TMP DP  RH WIND       PRES   REMARKS
MANISTIQUE     PTSUNNY   51  47  86 S9G20     30.07S
ESCANABA       CLOUDY    52  46  82 S6        30.04F
MENOMINEE      CLOUDY    52  45  76 SW3       30.04F
SAWYER-GWINN   RAIN      48  43  81 S12       30.01F
$$
MIZ001>003-009>011-084-232200-
WESTERN UPPER MICHIGAN

CITY           SKY/WX    TMP DP  RH WIND       PRES   REMARKS
IRON MOUNTAIN  LGT RAIN  45  43  93 SE6       30.01F FOG
HOUGHTON       LGT RAIN  47  45  93 S7        29.97S FOG
COPPER HARBOR    N/A     48  45  89 CALM      29.98F
IRONWOOD       CLOUDY    48  46  93 S9        29.95F
$$

ABBREVIATIONS USED IN REMARKS
   TC - TEMPERATURE IN CELSIUS
  WCI - WIND CHILL INDEX
   HX - HEAT INDEX
  VSB - VISIBILITY




USA.gov is the U.S. government's official web portal to all federal, state and local government web resources and services.